Terminal Aerodrome Forecast
Issued by NWS Brownsville, TX

Home | Current Version | Previous Version | Text Only | Print | Product List | Glossary On
Versions: 1 2 3 4 5 6 7 8 9 10 11 12 13 14 15 16 17 18 19 20 21 22 23 24 25 26 27
000
FTUS44 KBRO 221300 AAA
TAFHRL
TAF AMD
KHRL 221334Z 2214/2312 35003KT 6SM BR VCSH BKN060
     FM221700 07015KT P6SM VCSH SCT030 BKN060
     FM230200 06006KT P6SM SCT030 BKN060
     FM230600 04005KT P6SM FEW150=

USA.gov is the U.S. government's official web portal to all federal, state and local government web resources and services.